Location: Allos
(44.2333°N, 6.6333°E)
Time: 04:41:47
(UTC+00:00)

Cosmos 2369 Rocket - Pass Details

Date: 01 December 2020
Orbit: 829 x 852 km, 71.0° (Epoch: 27 January)

Event Time Altitude Azimuth Distance (km) Brightness Sun altitude
Rises 17:51:30 0° 331° (NNW) 3,420 5.6 -20.1°
Reaches altitude 10° 17:53:59 10° 329° (NNW) 2,478 4.9 -20.5°
Maximum altitude 17:59:35 62° 250° (WSW) 945 2.7 -21.5°
Drops below altitude 10° 18:05:06 10° 170° (S) 2,447 4.6 -22.5°
Sets 18:07:33 0° 167° (SSE) 3,373 5.3 -22.9°
